[Iaude] MPEC T233: 2023 TA10 [a=1.95,e=0.49,i=7.2,H=24.0]
    mpec at marsden.cfa.harvard.edu 
    mpec at marsden.cfa.harvard.edu
       
    Fri Oct 13 21:50:30 EDT 2023
    
    
  
M.P.E.C. 2023-T233                             Issued 2023 October 14, 01:48 UT
     The Minor Planet Electronic Circulars contain information on unusual
         minor planets, routine data on comets and natural satellites,
         and occasional editorial announcements.  They are published
    on behalf of Division F of the International Astronomical Union by the
          Minor Planet Center, Smithsonian Astrophysical Observatory,
                          Cambridge, MA 02138, U.S.A.
			  
             Prepared using the Tamkin Foundation Computer Network
                              MPC at CFA.HARVARD.EDU
            URL https://www.minorplanetcenter.net/    ISSN 1523-6714
                                   2023 TA10                                    
Observations:
     K23T10A* C2023 10 13.30731522 01 35.242-05 34 48.54         19.55wXET233F51
     K23T10A  C2023 10 13.31990922 01 47.694-05 31 05.93         19.24wXET233F51
     K23T10A  C2023 10 13.33342922 02 01.023-05 27 07.75         19.33wXET233F51
     K23T10A  C2023 10 13.42790122 03 35.199-04 59 18.55         18.96GVET233F51
     K23T10A  C2023 10 13.42854222 03 35.835-04 59 07.43         19.21GVET233F51
     K23T10A KC2023 10 13.44298 22 03 59.70 -04 52 08.6          19.5 VqET233E23
     K23T10A KC2023 10 13.45687 22 04 13.42 -04 48 04.1          19.1 VqET233E23
     K23T10A KC2023 10 13.47076 22 04 27.19 -04 43 59.5          19.4 VqET233E23
     K23T10A KB2023 10 13.73471 22 09 08.72 -03 30 51.1          19.0 GXET233M45
     K23T10A KB2023 10 13.73887 22 09 12.84 -03 29 38.9          19.0 GXET233M45
     K23T10A KB2023 10 13.74302 22 09 16.96 -03 28 26.5          19.3 GXET233M45
     K23T10A KC2023 10 13.75376 22 09 28.39 -03 25 27.4          18.8 GXET233G02
     K23T10A KC2023 10 13.75821 22 09 32.78 -03 24 09.2          19.1 GXET233G02
     K23T10A KC2023 10 13.76300 22 09 37.53 -03 22 46.6          18.8 GXET233G02
     K23T10A KC2023 10 13.76793822 09 41.41 -03 21 19.2          18.7 GXET233L18
     K23T10A 1C2023 10 13.76990222 09 45.010-03 20 44.30               VET233246
     K23T10A 1C2023 10 13.77040722 09 45.530-03 20 35.90               VET233246
     K23T10A 1C2023 10 13.77237822 09 47.450-03 20 01.40               VET233246
     K23T10A 1C2023 10 13.77283122 09 47.930-03 19 53.90               VET233246
     K23T10A KC2023 10 13.77604322 09 49.43 -03 18 58.3          18.7 GXET233L18
     K23T10A KC2023 10 13.78411222 09 57.34 -03 16 36.9          19.2 GXET233L18
     K23T10A KC2023 10 13.79327 22 10 08.83 -03 13 46.6          19.4 GXET233K83
     K23T10A KB2023 10 13.79429 22 10 10.60 -03 13 30.0          18.9 VZET233C95
     K23T10A KC2023 10 13.79581 22 10 11.35 -03 13 03.1          19.3 GXET233K83
     K23T10A KC2023 10 13.79836 22 10 13.85 -03 12 18.6          19.1 GXET233K83
     K23T10A KB2023 10 13.80164 22 10 17.88 -03 11 22.3          19.3 VZET233C95
     K23T10A KB2023 10 13.80876 22 10 24.86 -03 09 18.1          19.3 VZET233C95
     K23T10A KC2023 10 13.81656722 10 31.34 -03 07 15.0          18.1 RVET233K61
     K23T10A KC2023 10 13.81755522 10 32.31 -03 06 57.3          17.5 RVET233K61
     K23T10A KC2023 10 13.81930322 10 34.03 -03 06 27.3          17.5 RVET233K61
     K23T10A KC2023 10 13.82870 22 10 41.82 -03 03 38.1          19.1 VqET233L04
     K23T10A KC2023 10 13.83350 22 10 46.55 -03 02 14.3          19.5 VqET233L04
     K23T10A KC2023 10 13.84601 22 11 00.87 -02 58 31.4          19.4 GXET233K78
     K23T10A KC2023 10 13.85042822 11 06.818-02 57 29.34         18.9 GVET233J95
     K23T10A KC2023 10 13.85388422 11 10.243-02 56 29.29         19.2 GVET233J95
     K23T10A KC2023 10 13.85394 22 11 08.62 -02 56 13.9          19.9 GXET233K78
     K23T10A KC2023 10 13.85672422 11 13.046-02 55 40.30         19.1 GVET233J95
     K23T10A KC2023 10 13.85939922 11 15.660-02 54 53.82         18.9 GVET233J95
     K23T10A KC2023 10 13.86179 22 11 16.38 -02 53 56.9          19.4 GXET233K78
     K23T10A KC2023 10 13.88330 22 11 37.08 -02 47 42.9          19.2 GVET233M29
     K23T10A KC2023 10 13.89007 22 11 42.55 -02 45 47.1          19.5 GVET233L54
     K23T10A KC2023 10 13.89378422 11 47.63 -02 44 41.5          19.1 GVET233104
     K23T10A KC2023 10 13.89426 22 11 46.63 -02 44 35.8          19.6 GVET233L54
     K23T10A KC2023 10 13.89459 22 11 48.21 -02 44 28.3          19.1 GVET233M29
     K23T10A KC2023 10 13.89654 22 11 49.20 -02 44 01.5          18.5 VqET233M38
     K23T10A KC2023 10 13.89764622 11 51.44 -02 43 34.2          19.1 GVET233104
     K23T10A KC2023 10 13.89843 22 11 50.69 -02 43 22.6          19.5 GVET233L54
     K23T10A KC2023 10 13.90150722 11 55.24 -02 42 27.5          19.1 GVET233104
     K23T10A KC2023 10 13.90575 22 11 59.14 -02 41 14.5          19.0 GVET233M29
     K23T10A KC2023 10 13.90802 22 12 00.58 -02 40 41.9          17.8 VqET233M38
Observer details:
104 San Marcello Pistoiese.  Observers P. Bacci, M. Maestripieri.  Measurers
    P. Bacci, L. Tesi, G. Fagioli.  0.60-m F4 Reflector + CCD.
246 Klet Observatory-KLENOT.  Observers M. Tichy, J. Ticha, M. Janda, M.
    Honkova.  Measurer M. Tichy.  1.06-m f/2.7 Reflector + 2048x2048 CCD.
C95 SATINO Remote Observatory, Haute Provence.  Observer D. Husar.  0.30-m
    f/5.8 reflector + CMO.
E23 Arcadia.  Observer A. Hidas.  0.35-m f/1.9 reflector + CCD.
F51 Pan-STARRS 1, Haleakala.  Observers J. Bulger, T. Lowe, P. Minguez, A.
    Schultz, I. Smith.  Measurers K. Chambers, T. de Boer, J. Fairlamb, H.
    Gao, M. Huber, C.-C. Lin, E. Magnier, Y. Ramanjooloo, R. Wainscoat, R.
    Weryk.  1.8-m Ritchey-Chretien + CCD.
G02 KYSUCE Observatory, Kysucke Nove Mesto.  Observer M. Urbanik.  0.40-m
    f/6.8 Corrected Dall-Kirkham + CCD.
J95 Great Shefford.  Observer P. Birtwhistle.  0.41-m f/6.3 Schmidt-Cassegrain
    + CCD.
K61 Rokycany Observatory.  Observer M. Adamovsky.  0.51-m f/6.8 reflector +
    CCD.
K78 iota Scorpii Observatory, La Spezia.  Observers G. Scarfi, P. Boongerd.
    0.40-m f/6.1 reflector + CCD.
K83 Beppe Forti Astronomical Observatory, Montelupo.  Observers M. Tombelli,
    G. Interrante, P. Fini, A. Mazzanti, A. Squilloni, F. Cheli, L. Grazzini,
    T. Bitossi, E. Venticinque, G. Baldi, G. Fieramosca.  Measurers M.
    Tombelli, F. Bernardi.  0.40-m f/8 Ritchey-Chretien + CCD.
L04 ROASTERR-1 Observatory, Cluj-Napoca.  Observer L. Hudin.  0.3-m f/5
    reflector + CCD.
L18 QOS Observatory, Zalistsi.  Observers Y. V. Tanasiychuk, M. O. Reshetov.
    Measurer A. M. Kozhukhov.  0.50-m f/3.8 reflector + CCD.
L54 Berthelot Observatory, Hunedoara.  Observers A. Sonka, A. Nedelcu.
    Measurer A. Sonka.  0.50-m f/8 reflector + CCD.
M29 O.M.Ni.A. Observatory, Cesena.  Observers V. Tinella, A. De Pieri.  0.40-m
    f/8 reflector + CCD.
M38 Harsona Observatory, Nyiregyhaza.  Observer T. Elek.  0.20-m f/3 reflector
    + CCD.
M45 Starhopper Observatory, Sfantu Gheorghe.  Observer F. Ursache.  0.41-m
    f/7.5 reflector + CMO.
Orbital elements:
2023 TA10                                                Earth MOID = 0.0170 AU
Epoch 2023 Sept. 13.0 TT = JDT 2460200.5                Veres                   
M 356.66878              (2000.0)            P               Q                  
n   0.36119613     Peri.  337.29655     +0.99066904     +0.13223138             
a   1.9527231      Node    15.21602     -0.09753234     +0.85701923             
e   0.4889630      Incl.    7.22556     -0.09519614     +0.49802901             
P   2.73           H   24.08          G   0.15           U   8                  
Residuals in seconds of arc
231013 F51  0.1-  0.3-    231013 246  0.7-  0.1-    231013 J95  0.0   0.0
231013 F51  0.0   0.1-    231013 246  0.2-  0.4-    231013 K78  0.5-  0.6-
231013 F51  0.6-  0.6-    231013 L18  0.5+  0.5-    231013 J95  0.0   0.3-
231013 F51  0.2-  0.1-    231013 L18  0.6-  0.4+    231013 J95  0.5-  0.2-
231013 F51  0.3-  0.3-    231013 K83  0.2-  0.4+    231013 K78  0.3+  0.1+
231013 E23  0.6+  0.5+    231013 C95  0.5-  0.5-    231013 M29  0.7-  0.6+
231013 E23  0.2+  0.7+    231013 K83  0.1+  0.3-    231013 L54  1.7+  1.6+
231013 E23  0.4+  1.0+    231013 K83  0.0   0.1-    231013 104  0.2-  0.1-
231013 M45  0.2+  0.4+    231013 C95  0.0   0.6-    231013 L54  0.6+  0.1+
231013 M45  0.1+  0.1+    231013 C95  0.6-  0.2-    231013 M29  0.4-  0.7-
231013 M45  0.3+  0.2+    231013 K61  0.4+  0.6-    231013 M38  0.2+  0.2-
231013 G02  0.0   1.0-    231013 K61  0.3+  0.1-    231013 104  0.0   0.2+
231013 G02  0.4-  0.3-    231013 K61  0.2+  0.4-    231013 L54  0.4-  1.0+
231013 G02  0.5-  1.0-    231013 L04  0.1-  0.7-    231013 104  0.0   0.1-
231013 L18  0.5+  0.3-    231013 L04  0.2-  0.4-    231013 M29  1.2-  0.6-
231013 246  0.4-  0.1+    231013 K78  0.0   0.3-    231013 M38  0.0   0.2+
231013 246  0.2-  0.3-    231013 J95  0.1-  0.0
Ephemeris:
2023 TA10                a,e,i = 1.95, 0.49, 7                   q = 0.9979
Date    TT    R. A. (2000) Decl.     Delta      r    Elong.  Phase     V
2023 09 14    16 33 58.9 -48 46 26   0.1523  1.0028    84.4    86.9    23.1
...
2023 09 29    18 11 17.3 -45 20 56   0.08465 1.0012    87.1    88.1    21.8
...
2023 10 07    20 05 07.2 -32 25 06   0.05474 1.0136   103.2    73.8    20.4
...
2023 10 13    21 56 07.6 -07 04 12   0.04698 1.0285   129.4    48.5    19.3
2023 10 14    22 13 39.7 -02 12 06   0.04777 1.0314   133.9    44.2    19.2
2023 10 15    22 30 24.3 +02 28 06   0.04916 1.0345   138.0    40.2    19.2
...
2023 10 21    23 50 53.5 +22 36 24   0.06739 1.0553   151.2    27.1    19.6
...
2023 10 29    00 53 31.2 +33 09 38   0.1056  1.0889   153.4    24.1    20.5
...
2023 11 13    01 47 45.1 +37 25 12   0.1947  1.1670   153.3    22.4    21.9
M. P. C. Staff               (C) Copyright 2023 MPC           M.P.E.C. 2023-T233
    
    
More information about the Iaude
mailing list